Location: ??????
(56.0120°N, 39.1740°E)
Time: 11:12:39
(UTC+00:00)

Cosmos 2237 Rocket - Pass Details

Date: 14 April 2026
Orbit: 833 x 850 km, 71.0° (Epoch: 10 May)

Event Time Altitude Azimuth Distance (km) Brightness Sun altitude
Rises 18:14:52 0° 191° (S) 3,394 5.0 -13.7°
Reaches altitude 10° 18:17:22 10° 186° (S) 2,466 4.3 -13.9°
Maximum altitude 18:22:46 48° 113° (ESE) 1,101 2.4 -14.5°
Drops below altitude 10° 18:28:14 10° 41° (NE) 2,488 4.7 -15.0°
Sets 18:30:46 0° 36° (NE) 3,428 5.5 -15.3°
